International Skating Union - Official Site

Essent ISU World Cup Heerenveen
March 8-10, 2013

Draw | Lap Times | Index | World Cup

Referee: Ekaterina  PILSHCHIKOVA  (RUS)
Starter: Wim  BOERDIJK  (NED)
StartTime: EndTime: Air Temp: Ice Temp: Humidity:
19:11 19:40
Result Team Pursuit Ladies
Rankings as of Mar 8 2013 7:42PM
Rank: No.: Team: Nation: Time: Behind: Points:
Total 4
1 1 Netherlands (41) Marrit Leenstra (47) Linda de Vries (49) Ireen Wüst (46) Diane Valkenburg NED NED 3:00.500.5 - 18.42 - (18.4)
1.0 - 32.48 - (14.0)
1.5 - 46.24 - (13.7)
2.0 - 1:00.65 - (14.4)
2.5 - 1:15.12 - (14.4)
3.0 - 1:30.07 - (14.9)
3.5 - 1:44.93 - (14.8)
4.0 - 1:59.91 - (14.9)
4.5 - 2:15.08 - (15.1)
5.0 - 2:30.04 - (14.9)
5.5 - 2:45.26 - (15.2)
6.0 - 3:00.50 - (15.2)
150
2 2 Canada (6) Kali Christ (9) Christine Nesbitt (10) Brittany Schussler (4) Ivanie Blondin CAN CAN 3:03.500.5 - 19.03 - (19.0)
1.0 - 32.91 - (13.8)
1.5 - 46.96 - (14.0)
2.0 - 1:00.89 - (13.9)
2.5 - 1:15.13 - (14.2)
3.0 - 1:29.57 - (14.4)
3.5 - 1:44.54 - (14.9)
4.0 - 1:59.70 - (15.1)
4.5 - 2:15.22 - (15.5)
5.0 - 2:30.85 - (15.6)
5.5 - 2:47.02 - (16.1)
6.0 - 3:03.50 - (16.4)
3.00 120
3 4 Poland (52) Katarzyna Bachleda-Curus (54) Katarzyna Wozniak (55) Luiza Zlotkowska (53) Natalia Czerwonka POL POL 3:04.190.5 - 19.26 - (19.2)
1.0 - 33.84 - (14.5)
1.5 - 48.01 - (14.1)
2.0 - 1:02.27 - (14.2)
2.5 - 1:16.85 - (14.5)
3.0 - 1:31.84 - (14.9)
3.5 - 1:46.82 - (14.9)
4.0 - 2:01.86 - (15.0)
4.5 - 2:17.02 - (15.1)
5.0 - 2:32.31 - (15.2)
5.5 - 2:48.12 - (15.8)
6.0 - 3:04.19 - (16.0)
3.69 105
4 3 Germany (16) Stephanie Beckert (19) Bente Kraus (20) Claudia Pechstein (15) Monique Angermüller GER GER 3:09.470.5 - 20.03 - (20.0)
1.0 - 34.80 - (14.7)
1.5 - 49.39 - (14.5)
2.0 - 1:04.31 - (14.9)
2.5 - 1:19.65 - (15.3)
3.0 - 1:35.13 - (15.4)
3.5 - 1:50.73 - (15.6)
4.0 - 2:06.56 - (15.8)
4.5 - 2:21.85 - (15.2)
5.0 - 2:37.71 - (15.8)
5.5 - 2:53.49 - (15.7)
6.0 - 3:09.47 - (15.9)
8.97 90